Flag for Cyprus Weather past 2 weeks in Paphos, Cyprus

Now
68 °F

Passing clouds.


Feels Like: 68 °F
Forecast: 60 / 74 °F
Wind: 3 mph from Northeast

Location: Paphos Airport

Current Time: May 30, 2015 at 9:54:06 PM

Latest Report: May 30, 2015 at 9:30 PM


Visibility: N/A

Pressure: 29.92 "Hg

Humidity: 88%

Dew point: 64 °F

Location of PaphosLocation

Historic Weather in Paphos — Graph

°F

Paphos temperature yesterday

Maximum temperature yesterday: 77 °F (at 11:30 AM)
Minimum temperature yesterday: 70 °F (at 12:00 AM)
Average temperature yesterday: 72 °F

Past Weeks' High & Low Weather Summary

 TemperatureHumidityPressure
High91 °F (May 19, 9:00 AM)94% (May 21, 6:30 AM)30.21 "Hg (May 21, 6:30 AM)
Low55 °F (May 16, 5:30 AM)18% (May 20, 9:30 AM)29.68 "Hg (May 27, 5:30 PM)
Average72 °F68%29.87 "Hg
* Reported May 15 9:00 PM — May 30 9:00 PM, Paphos, Weather by CustomWeather, © 2015

Note: Actual official high and low records may vary slightly from our data, if they occured in-between our weather recording intervals... More about our weather records

Advertising

Paphos weather history for previous 24 hours

 ConditionsComfort  
Time TempWeatherWind HumidityBarometerVisibility
9:00 PM
Sat, May 30
68 °FPassing clouds.2 mph83%29.89 "HgN/A
8:30 PM70 °FScattered clouds.3 mph78%29.89 "HgN/A
8:00 PM72 °FScattered clouds.2 mph73%29.89 "HgN/A
7:30 PM72 °FScattered clouds.2 mph73%29.89 "HgN/A
7:00 PM72 °FScattered clouds.5 mph73%29.89 "HgN/A
6:30 PM72 °FPassing clouds.5 mph73%29.89 "HgN/A
6:00 PM73 °FPassing clouds.6 mph69%29.89 "HgN/A
5:30 PM73 °FPartly sunny.7 mph69%29.89 "HgN/A
5:00 PM73 °FLight rain. Partly sunny.8 mph74%29.86 "HgN/A
4:30 PM73 °FPassing clouds.8 mph69%29.86 "HgN/A
4:00 PM75 °FScattered clouds.8 mph65%29.89 "HgN/A
3:30 PM75 °FScattered clouds.8 mph65%29.89 "HgN/A
3:00 PM75 °FScattered clouds.8 mph65%29.89 "HgN/A
2:30 PM73 °FScattered clouds.9 mph74%29.89 "HgN/A
2:00 PM73 °FScattered clouds.9 mph74%29.89 "HgN/A
1:30 PM72 °FScattered clouds.7 mph73%29.89 "HgN/A
1:00 PM70 °FBroken clouds.8 mph88%29.89 "HgN/A
12:30 PM66 °FLight rain. Broken clouds.8 mph83%29.89 "Hg4 mi
12:00 PM70 °FScattered clouds.7 mph73%29.89 "HgN/A
11:30 AM70 °FScattered clouds.3 mph73%29.89 "HgN/A
11:00 AM70 °FLight rain. Scattered clouds.6 mph73%29.89 "HgN/A
10:30 AM70 °FLight rain. Scattered clouds.3 mph78%29.89 "HgN/A
10:00 AM68 °FScattered clouds.5 mph83%29.89 "HgN/A
9:30 AM68 °FScattered clouds.6 mph83%29.86 "HgN/A
9:00 AM66 °FScattered clouds.6 mph88%29.86 "HgN/A
8:30 AM64 °FScattered clouds.5 mph88%29.86 "HgN/A
8:00 AM64 °FOvercast.2 mph83%29.86 "Hg4 mi
7:30 AM66 °FScattered clouds.5 mph83%29.83 "HgN/A
7:00 AM64 °FScattered clouds.6 mph88%29.83 "HgN/A
6:30 AM61 °FPassing clouds.3 mph88%29.83 "HgN/A
6:00 AM61 °FPassing clouds.3 mph88%29.83 "HgN/A
5:30 AM61 °FPassing clouds.7 mph88%29.83 "HgN/A
5:00 AM61 °FPassing clouds.5 mph88%29.83 "HgN/A
4:30 AM61 °FCool.6 mph88%29.80 "HgN/A
4:00 AM61 °FCool.3 mph88%29.80 "HgN/A
3:30 AM61 °FCool.6 mph88%29.83 "HgN/A
3:00 AM61 °FPassing clouds.7 mph88%29.83 "HgN/A
2:30 AM61 °FThunderstorms. Passing clouds.7 mph88%29.83 "Hg5 mi
2:00 AM61 °FPassing clouds.7 mph88%29.83 "HgN/A
1:30 AM63 °FPassing clouds.6 mph88%29.83 "HgN/A
1:00 AM63 °FThunderstorms. Passing clouds.8 mph88%29.83 "HgN/A
12:30 AM64 °FThunderstorms. Partly cloudy.21 mph78%29.83 "Hg1 mi
11:30 PM
Fri, May 29
70 °FPassing clouds.7 mph73%29.83 "HgN/A
11:00 PM70 °FPassing clouds.8 mph73%29.83 "HgN/A
10:30 PM70 °FPassing clouds.6 mph78%29.83 "HgN/A
10:00 PM70 °FPassing clouds.7 mph73%29.83 "HgN/A
9:30 PM70 °FPassing clouds.9 mph78%29.80 "HgN/A
9:00 PM70 °FPassing clouds.7 mph78%29.80 "HgN/A
Weather by CustomWeather, © 2015

See weather overviewHow to use our weather pages